SP2WPY-13 Weather Reports


time (UTC)temp
C
wind
direction
speed
KPH
gust
KPH
rain 1hr
cm
rain 24hr
cm
rain mn
cm
humidity
%
barometer
mb
20260508053119 8 20 11.3 0.0 0.00 0.00 0.00 89 1022.7
20260508052644 8 37 4.8 0.0 0.00 0.00 0.00 91 1022.7
20260508052124 8 36 6.4 0.0 0.00 0.00 0.00 94 1022.6
20260508051605 8 40 9.7 0.0 0.00 0.00 0.00 95 1022.7
20260508051131 7 64 8.0 0.0 0.00 0.00 0.00 97 1022.7
20260508050612 7 11 4.8 0.0 0.00 0.00 0.00 100 1022.7
20260508050137 7 12 8.0 0.0 0.00 0.00 0.00 100 1022.8
20260508045618 7 12 6.4 0.0 0.00 0.00 0.00 100 1022.8
20260508045144 7 15 4.8 0.0 0.00 0.00 0.00 100 1022.8
20260508044624 7 3 6.4 0.0 0.00 0.00 0.00 100 1022.7
20260508044104 7 328 4.8 0.0 0.00 0.00 0.00 100 1022.7
20260508043630 7 17 11.3 0.0 0.00 0.00 0.00 100 1022.6
20260508043110 7 42 4.8 0.0 0.00 0.00 0.00 100 1022.6
20260508042636 7 320 8.0 0.0 0.00 0.00 0.00 100 1022.6
20260508042116 7 25 6.4 0.0 0.00 0.00 0.00 100 1022.5
20260508041643 7 21 9.7 0.0 0.00 0.00 0.00 100 1022.5
20260508041124 7 36 6.4 0.0 0.00 0.00 0.00 100 1022.5
20260508040603 7 20 9.7 0.0 0.00 0.00 0.00 100 1022.4
20260508040129 7 29 6.4 0.0 0.00 0.00 0.00 100 1022.5
20260508035610 6 17 4.8 0.0 0.00 0.00 0.00 100 1022.5
20260508035137 6 348 4.8 0.0 0.00 0.00 0.00 100 1022.5
20260508034616 6 9 6.4 0.0 0.00 0.00 0.00 100 1022.5
20260508034143 6 13 4.8 0.0 0.00 0.00 0.00 100 1022.4
20260508033623 6 358 6.4 0.0 0.00 0.00 0.00 100 1022.4
20260508033103 6 15 6.4 0.0 0.00 0.00 0.00 100 1022.3
20260508032629 6 358 4.8 0.0 0.00 0.00 0.00 100 1022.3
20260508032110 6 5 4.8 0.0 0.00 0.00 0.00 100 1022.2
20260508031636 6 9 6.4 0.0 0.00 0.00 0.00 100 1022.2
20260508031116 6 0 6.4 0.0 0.00 0.00 0.00 100 1022.1
20260508030643 6 354 6.4 0.0 0.00 0.00 0.00 100 1022.1
20260508030123 6 344 4.8 0.0 0.00 0.00 0.00 100 1022.1
20260508025603 6 19 9.7 0.0 0.00 0.00 0.00 100 1022.0
20260508025129 6 21 8.0 0.0 0.00 0.00 0.00 100 1022.0
20260508024609 6 9 9.7 0.0 0.00 0.00 0.00 100 1022.0
20260508024136 6 19 9.7 0.0 0.00 0.00 0.00 100 1022.0
20260508023616 6 11 11.3 0.0 0.00 0.00 0.00 100 1022.0
20260508023141 6 10 8.0 0.0 0.00 0.00 0.00 100 1022.0
20260508022622 6 23 8.0 0.0 0.00 0.00 0.00 100 1022.0
20260508022102 6 18 8.0 0.0 0.00 0.00 0.00 100 1022.0
20260508021628 6 29 6.4 0.0 0.00 0.00 0.00 100 1022.0
20260508021108 6 13 8.0 0.0 0.00 0.00 0.00 100 1021.9
20260508020635 6 26 8.0 0.0 0.00 0.00 0.00 100 1022.0
20260508020115 6 353 4.8 0.0 0.00 0.00 0.00 100 1022.0
20260508015641 6 35 6.4 0.0 0.00 0.00 0.00 100 1021.9
20260508015122 6 7 8.0 0.0 0.00 0.00 0.00 100 1021.9
20260508014602 6 7 3.2 0.0 0.00 0.00 0.00 100 1021.9
20260508014128 6 0 6.4 0.0 0.00 0.00 0.00 100 1021.9
20260508013609 6 354 6.4 0.0 0.00 0.00 0.00 100 1021.9
20260508013134 6 13 6.4 0.0 0.00 0.00 0.00 100 1021.9
20260508012614 6 7 3.2 0.0 0.00 0.00 0.00 100 1021.9
20260508012141 6 293 4.8 0.0 0.00 0.00 0.00 100 1022.0
20260508011620 6 350 4.8 0.0 0.00 0.00 0.00 100 1022.0
20260508011101 6 18 6.4 0.0 0.00 0.00 0.00 100 1021.9
20260508010627 6 20 9.7 0.0 0.00 0.00 0.00 100 1021.9
20260508010107 6 21 4.8 0.0 0.00 0.00 0.00 100 1021.9
20260508005634 6 14 4.8 0.0 0.00 0.00 0.00 100 1021.9
20260508005113 6 352 6.4 0.0 0.00 0.00 0.00 100 1021.8
20260508004641 6 16 9.7 0.0 0.00 0.00 0.00 100 1021.8
20260508004121 6 343 4.8 0.0 0.00 0.00 0.00 100 1021.8
20260508003601 6 29 4.8 0.0 0.00 0.00 0.00 100 1021.8
20260508003128 6 22 6.4 0.0 0.00 0.00 0.00 100 1021.8
20260508002606 6 347 6.4 0.0 0.00 0.00 0.00 100 1021.8
20260508002134 6 12 8.0 0.0 0.00 0.00 0.00 100 1021.7
20260508001614 6 11 6.4 0.0 0.00 0.00 0.00 100 1021.7
20260508001140 6 21 8.0 0.0 0.00 0.00 0.00 100 1021.7
20260508000620 6 20 4.8 0.0 0.00 0.00 0.00 100 1021.7
20260508000101 6 337 3.2 0.0 0.00 0.00 0.00 100 1021.7
20260507235626 6 306 4.8 0.0 0.00 0.00 0.00 100 1021.7
20260507235107 6 4 9.7 0.0 0.00 0.00 0.00 100 1021.6
20260507234633 6 4 4.8 0.0 0.00 0.00 0.00 100 1021.5
20260507234113 6 296 4.8 0.0 0.00 0.00 0.00 100 1021.6
20260507233639 6 287 8.0 0.0 0.00 0.00 0.00 100 1021.6
20260507233119 6 23 4.8 0.0 0.00 0.00 0.00 100 1021.6
20260507232646 6 3 6.4 0.0 0.00 0.00 0.00 100 1021.5
20260507232125 6 4 6.4 0.0 0.00 0.00 0.00 100 1021.5
20260507231606 6 5 6.4 0.0 0.00 0.00 0.00 100 1021.5
20260507231132 6 23 9.7 0.0 0.00 0.00 0.00 100 1021.3
20260507230612 6 24 8.0 0.0 0.00 0.00 0.00 100 1021.2
20260507230139 6 312 6.4 0.0 0.00 0.00 0.00 100 1021.2
20260507225619 6 17 11.3 0.0 0.00 0.00 0.00 100 1021.2
20260507225145 6 355 6.4 0.0 0.00 0.00 0.00 100 1021.1
20260507224625 6 0 9.7 0.0 0.00 0.00 0.00 100 1021.3
20260507224106 6 19 4.8 0.0 0.00 0.00 0.00 100 1021.3
20260507223631 6 324 6.4 0.0 0.00 0.00 0.00 100 1021.3
20260507223112 6 9 8.0 0.0 0.00 0.00 0.00 100 1021.3
20260507222638 6 14 6.4 0.0 0.00 0.00 0.00 100 1021.3
20260507222118 6 339 6.4 0.0 0.00 0.00 0.00 100 1021.3
20260507221644 6 311 4.8 0.0 0.00 0.00 0.00 100 1021.5
20260507221125 6 282 4.8 0.0 0.00 0.00 0.00 100 1021.6
20260507220605 6 292 4.8 0.0 0.00 0.00 0.00 100 1021.5
20260507220131 6 298 6.4 0.0 0.00 0.00 0.00 100 1021.4
20260507215611 6 335 4.8 0.0 0.00 0.00 0.00 100 1021.4
20260507215138 6 292 9.7 0.0 0.00 0.00 0.00 100 1021.4
20260507214618 6 285 9.7 0.0 0.00 0.00 0.00 100 1021.4
20260507214144 6 8 6.4 0.0 0.00 0.00 0.00 100 1021.4
20260507213625 6 10 8.0 0.0 0.00 0.00 0.00 100 1021.4
20260507213104 6 10 4.8 0.0 0.00 0.00 0.00 100 1021.4
20260507212631 6 334 6.4 0.0 0.00 0.00 0.00 100 1021.4
20260507212111 6 340 3.2 0.0 0.00 0.00 0.00 100 1021.4
20260507211637 6 341 3.2 0.0 0.00 0.00 0.00 100 1021.4
20260507211118 6 286 6.4 0.0 0.00 0.00 0.00 100 1021.3
20260507210643 6 293 8.0 0.0 0.00 0.00 0.00 100 1021.2
20260507210123 6 309 6.4 0.0 0.00 0.00 0.00 100 1021.2
20260507205604 6 286 6.4 0.0 0.00 0.00 0.00 100 1021.1
20260507205130 6 309 6.4 0.0 0.00 0.00 0.00 100 1021.0
20260507204610 5 328 3.2 0.0 0.00 0.00 0.00 100 1020.9
20260507204136 5 354 8.0 0.0 0.00 0.00 0.00 100 1020.9
20260507203617 5 8 9.7 0.0 0.00 0.00 0.00 100 1020.8
20260507203142 5 37 4.8 0.0 0.00 0.00 0.00 100 1020.8
20260507202623 5 11 6.4 0.0 0.00 0.00 0.00 100 1020.7
20260507202103 5 291 6.4 0.0 0.00 0.00 0.00 100 1020.6
20260507201630 5 321 8.0 0.0 0.00 0.00 0.00 100 1020.7
20260507201109 5 278 9.7 0.0 0.00 0.00 0.00 100 1020.7
20260507200635 5 323 9.7 0.0 0.00 0.00 0.00 100 1020.6
20260507200116 5 347 8.0 0.0 0.00 0.00 0.00 100 1020.6
20260507195641 5 284 9.7 0.0 0.00 0.00 0.00 100 1020.6
20260507195122 5 284 8.0 0.0 0.00 0.00 0.00 100 1020.6
20260507194602 5 301 11.3 0.0 0.00 0.00 0.00 100 1020.5
20260507194128 5 329 9.7 0.0 0.00 0.00 0.00 100 1020.4
20260507193608 5 2 4.8 0.0 0.00 0.00 0.00 100 1020.4
20260507193134 5 304 9.7 0.0 0.00 0.00 0.00 100 1020.3
20260507192615 5 310 8.0 0.0 0.00 0.00 0.00 100 1020.2
20260507192141 5 298 9.7 0.0 0.00 0.00 0.00 100 1019.9
20260507191621 6 308 8.0 0.0 0.00 0.00 0.00 100 1019.9
20260507191101 6 287 9.7 0.0 0.00 0.00 0.00 100 1019.9
20260507190628 6 283 9.7 0.0 0.00 0.00 0.00 100 1019.9
20260507190107 6 320 9.7 0.0 0.00 0.00 0.00 100 1019.9
20260507185634 6 281 11.3 0.0 0.00 0.00 0.00 100 1019.9
20260507185115 6 286 11.3 0.0 0.00 0.00 0.00 100 1019.9
20260507184640 6 290 11.3 0.0 0.00 0.00 0.00 100 1019.8
20260507184121 6 296 11.3 0.0 0.00 0.00 0.00 100 1019.8
20260507183601 6 297 6.4 0.0 0.00 0.00 0.00 100 1019.9
20260507183127 6 315 8.0 0.0 0.00 0.00 0.00 100 1019.8
20260507182608 6 337 9.7 0.0 0.00 0.00 0.00 99 1019.8
20260507182133 6 318 6.4 0.0 0.00 0.00 0.00 97 1019.7
20260507181614 6 4 6.4 0.0 0.00 0.00 0.00 96 1019.8
20260507181140 7 0 4.8 0.0 0.00 0.00 0.00 94 1019.7
20260507180621 7 11 8.0 0.0 0.00 0.00 0.00 93 1019.7
20260507175627 7 17 8.0 0.0 0.00 0.00 0.00 89 1019.6
20260507175107 8 21 9.7 0.0 0.00 0.00 0.00 85 1019.5
20260507174633 8 24 6.4 0.0 0.00 0.00 0.00 84 1019.5
20260507174113 8 4 6.4 0.0 0.00 0.00 0.00 83 1019.5
20260507173640 8 7 6.4 0.0 0.00 0.00 0.00 82 1019.4
20260507173120 8 7 6.4 0.0 0.00 0.00 0.00 81 1019.4
20260507172645 8 332 8.0 0.0 0.00 0.00 0.00 83 1019.4
20260507172126 8 24 6.4 0.0 0.00 0.00 0.00 85 1019.4
20260507171606 8 3 8.0 0.0 0.00 0.00 0.00 83 1019.3
20260507171132 8 6 6.4 0.0 0.00 0.00 0.00 85 1019.3
20260507170613 8 14 6.4 0.0 0.00 0.00 0.00 86 1019.3
20260507170139 8 20 8.0 0.0 0.00 0.00 0.00 86 1019.3
20260507165619 8 25 11.3 0.0 0.00 0.00 0.00 87 1019.3
20260507165145 8 10 9.7 0.0 0.00 0.00 0.00 86 1019.4
20260507164626 8 16 12.9 0.0 0.00 0.00 0.00 86 1019.4
20260507164105 8 332 3.2 0.0 0.00 0.00 0.00 87 1019.4
20260507163631 8 8 4.8 0.0 0.00 0.00 0.00 86 1019.3
20260507163112 8 41 8.0 0.0 0.00 0.00 0.00 86 1019.3
20260507162639 8 17 11.3 0.0 0.00 0.00 0.00 85 1019.2
20260507162118 8 13 8.0 0.0 0.00 0.00 0.00 85 1019.2
20260507161645 8 348 9.7 0.0 0.00 0.00 0.00 84 1019.1
20260507161126 8 27 8.0 0.0 0.00 0.00 0.00 83 1019.1
20260507160605 8 22 6.4 0.0 0.00 0.00 0.00 86 1019.1
20260507160132 8 4 8.0 0.0 0.00 0.00 0.00 86 1019.2
20260507155612 8 329 6.4 0.0 0.00 0.00 0.00 88 1019.3
20260507155138 7 336 9.7 0.0 0.00 0.00 0.00 88 1019.2
20260507154619 7 20 9.7 0.0 0.00 0.00 0.00 88 1019.2
20260507154144 7 10 9.7 0.0 0.00 0.00 0.00 90 1019.1
20260507153625 8 19 9.7 0.0 0.00 0.00 0.00 91 1019.1
20260507153105 7 39 6.4 0.0 0.00 0.00 0.00 94 1019.1
20260507152634 7 6 8.0 0.0 0.00 0.00 0.00 94 1019.1
20260507152111 7 19 12.9 0.0 0.00 0.00 0.00 94 1019.1
20260507151638 7 2 8.0 0.0 0.00 0.00 0.00 94 1019.1
20260507151118 7 8 11.3 0.0 0.00 0.00 0.00 93 1019.1
20260507150643 7 18 6.4 0.0 0.00 0.00 0.00 94 1019.1
20260507150125 7 26 9.7 0.0 0.00 0.00 0.00 94 1019.2
20260507145605 7 28 11.3 0.0 0.00 0.00 0.00 93 1019.0
20260507145131 7 44 9.7 0.0 0.00 0.00 0.00 92 1019.0
20260507144611 7 35 8.0 0.0 0.00 0.00 0.00 93 1018.8
20260507144136 8 16 14.5 0.0 0.00 0.00 0.00 91 1018.8
20260507143618 8 23 11.3 0.0 0.00 0.00 0.00 91 1018.8
20260507143143 8 22 6.4 0.0 0.00 0.00 0.00 93 1018.6
20260507142624 8 31 8.0 0.0 0.00 0.00 0.00 93 1018.6
20260507142104 8 22 8.0 0.0 0.00 0.00 0.00 92 1018.5
20260507141629 8 25 12.9 0.0 0.00 0.00 0.00 92 1018.5
20260507141110 8 56 11.3 0.0 0.00 0.00 0.00 90 1018.4
20260507140636 8 53 11.3 0.0 0.00 0.00 0.00 91 1018.5
20260507140116 8 20 3.2 0.0 0.00 0.00 0.00 93 1018.6
20260507135643 8 34 9.7 0.0 0.00 0.00 0.00 93 1018.6
20260507135122 8 17 17.7 0.0 0.00 0.00 0.00 91 1018.4
20260507134603 9 9 14.5 0.0 0.00 0.00 0.00 88 1018.5
20260507134129 8 38 11.3 0.0 0.00 0.00 0.00 91 1018.5
20260507133609 8 10 8.0 0.0 0.00 0.00 0.00 91 1018.6
20260507133136 8 358 9.7 0.0 0.00 0.00 0.00 92 1018.5
20260507132616 8 19 9.7 0.0 0.00 0.00 0.00 96 1018.5
20260507132143 8 10 9.7 0.0 0.00 0.00 0.00 96 1018.6
20260507131623 8 8 16.1 0.0 0.00 0.00 0.00 94 1018.5
20260507131102 8 36 6.4 0.0 0.00 0.00 0.00 96 1018.3
20260507130630 7 20 9.7 0.0 0.00 0.00 0.00 98 1018.4
20260507130110 8 24 20.9 0.0 0.00 0.00 0.00 96 1018.3
20260507125635 8 19 14.5 0.0 0.00 0.00 0.00 97 1018.3
20260507125116 7 11 17.7 0.0 0.00 0.00 0.00 98 1018.3
20260507124642 7 42 9.7 0.0 0.00 0.00 0.00 98 1018.2
20260507124122 8 13 9.7 0.0 0.00 0.00 0.00 98 1018.1
20260507123603 7 41 14.5 0.0 0.00 0.00 0.00 99 1018.1
20260507123129 7 346 9.7 0.0 0.00 0.00 0.00 97 1018.0
20260507122611 8 34 16.1 0.0 0.00 0.00 0.00 94 1018.0
20260507122135 8 13 16.1 0.0 0.00 0.00 0.00 93 1017.9
20260507121615 8 51 11.3 0.0 0.00 0.00 0.00 94 1017.7
20260507121141 8 34 9.7 0.0 0.00 0.00 0.00 96 1017.6
20260507120621 8 12 9.7 0.0 0.00 0.00 0.00 96 1017.6
20260507115628 8 7 8.0 0.0 0.00 0.00 0.00 95 1017.5
20260507115109 8 41 16.1 0.0 0.00 0.00 0.00 95 1017.6
20260507114634 8 19 20.9 0.0 0.00 0.00 0.00 93 1017.5
20260507114116 8 5 12.9 0.0 0.00 0.00 0.00 93 1017.5
20260507113641 8 40 12.9 0.0 0.00 0.00 0.00 92 1017.5
20260507113121 8 25 25.7 0.0 0.00 0.00 0.00 91 1017.4
20260507112602 8 44 9.7 0.0 0.00 0.00 0.00 94 1017.3
20260507112127 8 18 24.1 0.0 0.00 0.00 0.00 91 1017.3
20260507111607 9 28 11.3 0.0 0.00 0.00 0.00 90 1017.4
20260507111134 9 18 14.5 0.0 0.00 0.00 0.00 89 1017.3
20260507110614 9 346 12.9 0.0 0.00 0.00 0.00 88 1017.3
20260507110141 9 34 11.3 0.0 0.00 0.00 0.00 89 1017.4
20260507105621 10 23 20.9 0.0 0.00 0.00 0.00 87 1017.3
20260507105101 9 40 16.1 0.0 0.00 0.00 0.00 89 1017.3
20260507104627 9 16 20.9 0.0 0.00 0.00 0.00 88 1017.4
20260507104107 9 53 8.0 0.0 0.00 0.00 0.00 90 1017.3
20260507103633 8 3 9.7 0.0 0.00 0.00 0.00 91 1017.3
20260507103113 8 9 14.5 0.0 0.00 0.00 0.00 90 1017.1
20260507102640 8 16 8.0 0.0 0.00 0.00 0.00 90 1017.0
20260507102120 8 23 20.9 0.0 0.00 0.00 0.00 91 1016.8
20260507101646 8 15 11.3 0.0 0.00 0.00 0.00 92 1016.9
20260507101127 8 33 11.3 0.0 0.00 0.00 0.00 94 1016.8
20260507100607 8 24 16.1 0.0 0.00 0.00 0.00 95 1016.8
20260507100133 8 358 9.7 0.0 0.00 0.00 0.00 96 1016.6
20260507095614 8 9 12.9 0.0 0.00 0.00 0.00 100 1016.6
20260507095140 7 25 17.7 0.0 0.00 0.00 0.00 100 1016.5
20260507094620 7 326 9.7 0.0 0.00 0.00 0.00 100 1016.4
20260507094100 7 10 17.7 0.0 0.00 0.00 0.00 100 1016.4
20260507093627 7 16 19.3 0.0 0.00 0.00 0.00 100 1016.4
20260507093107 7 2 14.5 0.0 0.00 0.00 0.00 100 1016.3
20260507092632 7 308 14.5 0.0 0.00 0.00 0.00 100 1016.3
20260507092113 7 29 12.9 0.0 0.00 0.00 0.00 100 1016.3
20260507091638 7 22 14.5 0.0 0.00 0.00 0.00 100 1016.2
20260507091119 8 33 9.7 0.0 0.00 0.00 0.00 100 1016.3
20260507090645 7 342 16.1 0.0 0.00 0.00 0.00 100 1016.1
20260507090125 8 19 16.1 0.0 0.00 0.00 0.00 100 1016.1
20260507085606 8 23 14.5 0.0 0.00 0.00 0.00 100 1015.9
20260507085132 8 13 11.3 0.0 0.00 0.00 0.00 100 1015.9
20260507084612 7 284 14.5 0.0 0.00 0.00 0.00 100 1015.9
20260507084138 7 12 17.7 0.0 0.00 0.00 0.00 100 1015.8
20260507083618 7 7 11.3 0.0 0.00 0.00 0.00 100 1015.8
20260507083144 7 10 11.3 0.0 0.00 0.00 0.00 100 1015.8
20260507082625 7 12 11.3 0.0 0.00 0.00 0.00 100 1015.8
20260507082105 7 326 9.7 0.0 0.00 0.00 0.00 100 1015.8
20260507081630 7 354 14.5 0.0 0.00 0.00 0.00 100 1015.8
20260507081111 7 24 11.3 0.0 0.00 0.00 0.00 100 1015.6
20260507080639 7 2 12.9 0.0 0.00 0.00 0.00 100 1015.6
20260507080118 7 23 16.1 0.0 0.00 0.00 0.00 100 1015.5
20260507075644 7 12 8.0 0.0 0.00 0.00 0.00 100 1015.4
20260507075125 6 17 6.4 0.0 0.00 0.00 0.00 100 1015.4
20260507074604 6 3 17.7 0.0 0.00 0.00 0.00 100 1015.5
20260507074132 7 18 17.7 0.0 0.00 0.00 0.00 100 1015.5
20260507073611 7 16 6.4 0.0 0.00 0.00 0.00 100 1015.4
20260507073137 6 312 6.4 0.0 0.00 0.00 0.00 100 1015.3
20260507072618 6 356 8.0 0.0 0.00 0.00 0.00 100 1015.3
20260507072143 6 19 17.7 0.0 0.00 0.00 0.00 100 1015.4
20260507071624 6 307 8.0 0.0 0.00 0.00 0.00 100 1015.3
20260507071105 6 16 9.7 0.0 0.00 0.00 0.00 100 1015.3
20260507070631 6 21 11.3 0.0 0.00 0.00 0.00 100 1015.2
20260507070110 6 24 14.5 0.0 0.00 0.00 0.00 100 1015.3
20260507065637 6 350 11.3 0.0 0.00 0.00 0.00 100 1015.2
20260507065117 5 348 14.5 0.0 0.00 0.00 0.00 100 1015.1
20260507064643 5 5 12.9 0.0 0.00 0.00 0.00 100 1015.1
20260507064123 5 34 17.7 0.0 0.00 0.00 0.00 100 1015.1
20260507063604 5 19 14.5 0.0 0.00 0.00 0.00 100 1015.1
20260507063130 5 24 20.9 0.0 0.00 0.00 0.00 100 1015.0
20260507062610 5 8 9.7 0.0 0.00 0.00 0.00 100 1014.9
20260507062136 5 34 14.5 0.0 0.00 0.00 0.00 100 1014.9
20260507061616 5 31 16.1 0.0 0.00 0.00 0.00 100 1014.9
20260507061142 5 30 11.3 0.0 0.00 0.00 0.00 100 1014.9
20260507060623 5 22 11.3 0.0 0.00 0.00 0.00 100 1014.9
20260507060103 5 33 14.5 0.0 0.00 0.00 0.00 100 1014.9
20260507055629 5 3 11.3 0.0 0.00 0.00 0.00 100 1014.9
20260507055110 5 10 12.9 0.0 0.00 0.00 0.00 100 1014.7
20260507054635 5 20 16.1 0.0 0.00 0.00 0.00 100 1014.7
20260507054115 5 5 11.3 0.0 0.00 0.00 0.00 100 1014.6
20260507053641 5 25 14.5 0.0 0.00 0.00 0.00 100 1014.5